Weather History for Teterboro, NJ

Change the Weather History Date:

Wednesday, June 11, 2014

  Actual Average Record
Temperature  
Mean Temperature 68 °F -  
Max Temperature 73 °F 76 °F 93 °F (2000)
Min Temperature 64 °F 57 °F 43 °F (1980)
Cooling Degree Days 4    
Growing Degree Days 18 (Base 50)    
Moisture  
Dew Point 58 °F    
Average Humidity 71    
Maximum Humidity 83    
Minimum Humidity 59    
Precipitation  
Precipitation 0.02 in - - ()
Sea Level Pressure  
Sea Level Pressure 30.06 in    
Wind  
Wind Speed 7 mph (ENE)    
Max Wind Speed 16 mph    
Max Gust Speed 26 mph    
Visibility 9 miles    
Events Rain    
Averages and records for this station are not official NWS values.
T = Trace of Precipitation, MM = Missing Value Source: NWS Daily Summary

Daily Weather History Graph

Daily Weather History Graph

Search for Another Location

Airport:

Trip Planner

Search our weather history database for the weather conditions in past years. The results will help you decide how hot, cold, wet, or windy it might be!

Date:

Astronomy

Jun. 11, 2014 Rise Set
Actual Time 5:24 AM EDT 8:27 PM EDT
Civil Twilight 4:50 AM EDT 9:01 PM EDT
Nautical Twilight 4:08 AM EDT 9:43 PM EDT
Astronomical Twilight 3:18 AM EDT 10:33 PM EDT
Moon 6:54 PM EDT (6/11) 4:12 AM EDT (6/11)
Length of Visible Light 16h 10m
Length of Day
15h 03m
Waxing Gibbous, 97% of the Moon is Illuminated
Jun 11
Waxing Gibbous
Jun 13
Full
Jun 19
Last Quarter
Jun 27
New
Jul 5
First Quarter

Hourly Weather History & Observations

Time (EDT) Temp. Dew Point Humidity Pressure Visibility Wind Dir Wind Speed Gust Speed Precip Events Conditions
12:36 AM 73.4 °F 66.2 °F 78% 29.99 in 8.0 mi Calm Calm - N/A   Overcast
12:51 AM 73.0 °F 66.0 °F 79% 30.00 in 8.0 mi NE 3.5 mph - N/A   Overcast
12:58 AM 73.4 °F 66.2 °F 78% 29.99 in 8.0 mi NE 4.6 mph - N/A   Overcast
1:12 AM 73.4 °F 66.2 °F 78% 29.99 in 8.0 mi ENE 5.8 mph - N/A   Overcast
1:51 AM 72.0 °F 66.0 °F 81% 29.99 in 5.0 mi East 8.1 mph - N/A   Haze
2:51 AM 68.0 °F 62.1 °F 81% 30.00 in 6.0 mi East 12.7 mph 20.7 mph 0.00 in   Overcast
3:51 AM 66.9 °F 61.0 °F 81% 30.02 in 6.0 mi ENE 11.5 mph 18.4 mph N/A   Overcast
4:04 AM 66.2 °F 60.8 °F 83% 30.02 in 8.0 mi East 8.1 mph 23.0 mph N/A   Overcast
4:51 AM 66.9 °F 59.0 °F 76% 30.03 in 8.0 mi East 11.5 mph 20.7 mph N/A   Overcast
5:11 AM 66.2 °F 57.2 °F 73% 30.03 in 7.0 mi East 11.5 mph 25.3 mph N/A   Overcast
5:51 AM 66.9 °F 57.0 °F 70% 30.04 in 7.0 mi East 16.1 mph 26.5 mph 0.00 in Rain Light Rain
6:51 AM 66.0 °F 57.0 °F 73% 30.07 in 7.0 mi East 9.2 mph 20.7 mph 0.00 in Rain Light Rain
7:51 AM 64.9 °F 55.9 °F 73% 30.09 in 5.0 mi East 10.4 mph 18.4 mph 0.00 in Rain Light Rain
8:51 AM 64.0 °F 55.9 °F 75% 30.10 in 8.0 mi East 12.7 mph 19.6 mph 0.02 in Rain Light Rain
9:51 AM 64.0 °F 55.0 °F 73% 30.12 in 8.0 mi ENE 5.8 mph - 0.00 in   Overcast
10:51 AM 64.9 °F 55.0 °F 70% 30.11 in 8.0 mi ENE 6.9 mph - 0.00 in   Overcast
11:51 AM 66.0 °F 55.0 °F 68% 30.11 in 10.0 mi ENE 9.2 mph - N/A   Overcast
12:22 PM 66.2 °F 55.4 °F 68% 30.11 in 10.0 mi ENE 4.6 mph - N/A   Overcast
12:51 PM 66.9 °F 55.0 °F 66% 30.11 in 10.0 mi NE 5.8 mph - N/A   Overcast
1:51 PM 69.8 °F 57.2 °F 64% 30.10 in 10.0 mi NE 6.9 mph - N/A   Overcast
2:51 PM 71.1 °F 55.9 °F 59% 30.09 in 10.0 mi ENE 6.9 mph - N/A   Overcast
3:51 PM 70.0 °F 57.0 °F 63% 30.07 in 10.0 mi East 8.1 mph - N/A   Overcast
4:51 PM 70.0 °F 57.9 °F 65% 30.08 in 10.0 mi East 10.4 mph - 0.00 in   Overcast
5:51 PM 70.0 °F 57.9 °F 65% 30.05 in 10.0 mi ENE 8.1 mph - N/A   Overcast
6:41 PM 69.8 °F 55.4 °F 60% 30.05 in 10.0 mi ENE 9.2 mph - N/A   Mostly Cloudy
6:51 PM 69.1 °F 55.9 °F 63% 30.05 in 10.0 mi ENE 9.2 mph - N/A   Overcast
7:51 PM 66.9 °F 55.9 °F 68% 30.06 in 10.0 mi ENE 8.1 mph - N/A   Overcast
8:51 PM 66.9 °F 55.9 °F 68% 30.06 in 10.0 mi ENE 10.4 mph - N/A   Overcast
9:34 PM 66.2 °F 55.4 °F 68% 30.07 in 10.0 mi ENE 8.1 mph - N/A   Overcast
9:51 PM 66.0 °F 55.9 °F 70% 30.09 in 10.0 mi Variable 4.6 mph - N/A   Overcast
10:51 PM 66.0 °F 57.0 °F 73% 30.10 in 10.0 mi NE 4.6 mph - N/A   Overcast
11:51 PM 64.9 °F 57.0 °F 75% 30.09 in 9.0 mi ENE 3.5 mph - 0.00 in   Light Drizzle